Time,TemperatureF,DewpointF,PressureIn,WindDirection,WindDirectionDegrees,WindSpeedMPH,WindSpeedGustMPH,Humidity,HourlyPrecipIn,Conditions,Clouds,dailyrainin,SoftwareType,DateUTC
2013-02-16 00:00:00,21.6,-6.6,29.93,NNW,337,4.7,4.7,28,0.00,CLR,,0.00,WeatherDisplay:10.37,2013-02-16 05:00:00,
2013-02-16 00:01:00,21.6,-6.6,29.93,NNW,337,4.7,4.7,28,0.00,CLR,,0.00,WeatherDisplay:10.37,2013-02-16 05:01:00,
2013-02-16 00:02:00,21.6,-6.6,29.93,NNW,337,4.7,4.7,28,0.00,CLR,,0.00,WeatherDisplay:10.37,2013-02-16 05:02:00,
2013-02-16 00:07:00,21.6,-6.6,29.94,WNW,292,2.3,2.3,28,0.00,CLR,,0.00,WeatherDisplay:10.37,2013-02-16 05:07:00,
2013-02-16 00:10:00,21.6,-6.6,29.94,WNW,292,2.3,2.3,28,0.00,CLR,,0.00,WeatherDisplay:10.37,2013-02-16 05:10:00,
2013-02-16 00:15:00,21.6,-6.6,29.94,NNW,337,2.3,2.3,28,0.00,CLR,,0.00,WeatherDisplay:10.37,2013-02-16 05:15:00,
2013-02-16 00:20:00,21.6,-6.6,29.92,North,0,2.3,2.3,28,0.00,CLR,,0.00,WeatherDisplay:10.37,2013-02-16 05:20:00,
2013-02-16 00:24:00,21.6,-6.6,29.99,North,0,2.3,2.3,28,0.00,CLR,,0.00,WeatherDisplay:10.37,2013-02-16 05:24:00,
2013-02-16 00:29:00,21.7,-6.4,29.98,North,0,4.0,4.0,28,0.00,CLR,,0.00,WeatherDisplay:10.37,2013-02-16 05:29:00,
2013-02-16 00:34:00,21.7,-6.4,29.98,NNE,22,4.0,4.0,28,0.00,CLR,,0.00,WeatherDisplay:10.37,2013-02-16 05:34:00,
2013-02-16 00:39:00,22.3,-6.0,29.98,NNE,22,4.0,4.0,28,0.00,CLR,,0.00,WeatherDisplay:10.37,2013-02-16 05:39:00,
2013-02-16 00:44:00,21.9,-6.3,29.91,NNE,22,4.0,4.0,28,0.00,CLR,,0.00,WeatherDisplay:10.37,2013-02-16 05:44:00,
2013-02-16 00:49:00,22.5,-5.8,29.92,NNE,22,4.0,0.0,28,0.00,CLR,,0.00,WeatherDisplay:10.37,2013-02-16 05:49:00,
2013-02-16 00:54:00,19.0,-8.8,29.93,NNE,22,4.0,0.0,28,0.00,CLR,,0.00,WeatherDisplay:10.37,2013-02-16 05:54:00,
2013-02-16 00:59:00,19.0,-8.8,29.93,NNE,22,4.0,0.0,28,0.00,CLR,,0.00,WeatherDisplay:10.37,2013-02-16 05:59:00,
2013-02-16 01:04:00,19.2,-8.6,29.93,NE,45,3.5,0.0,28,0.00,CLR,,0.00,WeatherDisplay:10.37,2013-02-16 06:04:00,
2013-02-16 01:09:00,19.2,-8.6,29.93,ENE,67,0.0,0.0,28,0.00,CLR,,0.00,WeatherDisplay:10.37,2013-02-16 06:09:00,
2013-02-16 01:14:00,19.4,-8.5,29.93,SSW,202,0.0,0.0,28,0.00,CLR,,0.00,WeatherDisplay:10.37,2013-02-16 06:14:00,
2013-02-16 01:19:00,19.6,-8.3,29.99,SSW,202,0.0,0.0,28,0.00,CLR,,0.00,WeatherDisplay:10.37,2013-02-16 06:19:00,
2013-02-16 01:24:00,19.6,-8.3,29.96,SSW,202,0.0,0.0,28,0.00,CLR,,0.00,WeatherDisplay:10.37,2013-02-16 06:24:00,
2013-02-16 01:29:00,19.9,-8.0,29.95,SSW,202,0.0,0.0,28,0.00,CLR,,0.00,WeatherDisplay:10.37,2013-02-16 06:29:00,
2013-02-16 01:34:00,20.1,-7.8,29.95,SSW,202,0.0,0.0,28,0.00,CLR,,0.00,WeatherDisplay:10.37,2013-02-16 06:34:00,
2013-02-16 01:39:00,20.3,-7.7,29.96,SSW,202,0.0,0.0,28,0.00,CLR,,0.00,WeatherDisplay:10.37,2013-02-16 06:39:00,
2013-02-16 01:44:00,20.5,-7.5,29.98,SSW,202,0.0,0.0,28,0.00,CLR,,0.00,WeatherDisplay:10.37,2013-02-16 06:44:00,
2013-02-16 01:49:00,20.5,-7.5,29.91,SSW,202,0.0,0.0,28,0.00,CLR,,0.00,WeatherDisplay:10.37,2013-02-16 06:49:00,
2013-02-16 01:54:00,20.5,-7.5,29.91,SSW,202,0.0,0.0,28,0.00,CLR,,0.00,WeatherDisplay:10.37,2013-02-16 06:54:00,
2013-02-16 01:59:00,20.5,-7.5,29.92,SSW,202,0.0,0.0,28,0.00,CLR,,0.00,WeatherDisplay:10.37,2013-02-16 06:59:00,
2013-02-16 02:04:00,20.5,-7.5,29.92,SSW,202,0.0,0.0,28,0.00,CLR,,0.00,WeatherDisplay:10.37,2013-02-16 07:04:00,
2013-02-16 02:09:00,20.3,-7.7,29.93,SW,225,0.0,0.0,28,0.00,CLR,,0.00,WeatherDisplay:10.37,2013-02-16 07:09:00,
2013-02-16 02:14:00,20.3,-7.7,29.91,WSW,247,0.7,0.0,28,0.00,CLR,,0.00,WeatherDisplay:10.37,2013-02-16 07:14:00,
2013-02-16 02:19:00,20.3,-7.7,29.96,West,270,1.1,0.0,28,0.00,CLR,,0.00,WeatherDisplay:10.37,2013-02-16 07:19:00,
2013-02-16 02:24:00,20.3,-7.7,29.95,West,270,1.1,0.0,28,0.00,CLR,,0.00,WeatherDisplay:10.37,2013-02-16 07:24:00,
2013-02-16 02:29:00,17.2,-10.4,29.95,WSW,247,1.1,1.1,28,0.00,CLR,,0.00,WeatherDisplay:10.37,2013-02-16 07:29:00,
2013-02-16 02:34:00,17.2,-10.4,29.95,WSW,247,1.1,0.0,28,0.00,CLR,,0.00,WeatherDisplay:10.37,2013-02-16 07:34:00,
2013-02-16 02:39:00,17.2,-10.4,29.95,SW,225,1.1,0.0,28,0.00,CLR,,0.00,WeatherDisplay:10.37,2013-02-16 07:39:00,
2013-02-16 02:44:00,20.7,-7.4,29.96,WSW,247,1.1,0.0,28,0.00,CLR,,0.00,WeatherDisplay:10.37,2013-02-16 07:44:00,
2013-02-16 02:49:00,20.7,-7.4,29.90,SW,236,0.0,1.0,28,0.00,CLR,CLR,0.00,WeatherDisplay:10.37,2013-02-16 07:49:00,
2013-02-16 02:54:00,20.7,-7.4,29.91,WSW,239,0.0,1.0,28,0.00,CLR,CLR,0.00,WeatherDisplay:10.37,2013-02-16 07:54:00,
2013-02-16 02:59:00,20.7,-7.4,29.91,WSW,244,1.0,1.0,28,0.00,CLR,CLR,0.00,WeatherDisplay:10.37,2013-02-16 07:59:00,
2013-02-16 03:04:00,20.7,-7.4,29.91,WSW,238,1.0,1.0,28,0.00,CLR,CLR,0.00,WeatherDisplay:10.37,2013-02-16 08:04:00,
2013-02-16 03:09:00,20.7,-7.4,29.90,SW,234,1.0,3.0,28,0.00,CLR,CLR,0.00,WeatherDisplay:10.37,2013-02-16 08:09:00,
2013-02-16 03:14:00,20.7,-7.4,29.89,SW,231,0.0,3.0,28,0.00,CLR,CLR,0.00,WeatherDisplay:10.37,2013-02-16 08:14:00,
2013-02-16 03:19:00,20.7,-7.4,29.94,WSW,241,0.0,3.0,28,0.00,CLR,CLR,0.00,WeatherDisplay:10.37,2013-02-16 08:19:00,
2013-02-16 03:24:00,20.5,-7.5,29.93,SW,234,0.0,3.0,28,0.00,CLR,CLR,0.00,WeatherDisplay:10.37,2013-02-16 08:24:00,
2013-02-16 03:29:00,20.3,-7.7,29.93,SSW,212,0.0,3.0,28,0.00,CLR,CLR,0.00,WeatherDisplay:10.37,2013-02-16 08:29:00,
2013-02-16 03:34:00,20.5,-7.5,29.93,SSW,202,0.0,3.0,28,0.00,CLR,CLR,0.00,WeatherDisplay:10.37,2013-02-16 08:34:00,
2013-02-16 03:39:00,20.3,-7.7,29.93,South,189,0.0,3.0,28,0.00,CLR,CLR,0.00,WeatherDisplay:10.37,2013-02-16 08:39:00,
2013-02-16 03:44:00,20.5,-7.5,29.92,South,180,0.0,3.0,28,0.00,CLR,CLR,0.00,WeatherDisplay:10.37,2013-02-16 08:44:00,
2013-02-16 03:49:00,20.5,-7.5,29.88,SSW,202,0.0,3.0,28,0.00,CLR,CLR,0.00,WeatherDisplay:10.37,2013-02-16 08:49:00,
2013-02-16 03:54:00,17.6,-10.0,29.89,SW,222,0.0,3.0,28,0.00,CLR,CLR,0.00,WeatherDisplay:10.37,2013-02-16 08:54:00,
2013-02-16 03:59:00,17.8,-9.9,29.89,SW,225,0.0,3.0,28,0.00,CLR,CLR,0.00,WeatherDisplay:10.37,2013-02-16 08:59:00,
2013-02-16 04:04:00,17.8,-9.9,29.89,SW,225,0.0,3.0,28,0.00,CLR,CLR,0.00,WeatherDisplay:10.37,2013-02-16 09:04:00,
2013-02-16 04:09:00,18.0,-9.7,29.88,SW,225,0.0,3.0,28,0.00,CLR,CLR,0.00,WeatherDisplay:10.37,2013-02-16 09:09:00,
2013-02-16 04:14:00,17.8,-9.9,29.93,SSW,200,0.0,0.0,28,0.00,CLR,CLR,0.00,WeatherDisplay:10.37,2013-02-16 09:14:00,
2013-02-16 04:19:00,17.8,-9.9,29.93,South,173,0.0,0.0,28,0.00,CLR,CLR,0.00,WeatherDisplay:10.37,2013-02-16 09:19:00,
2013-02-16 04:24:00,17.8,-9.9,29.92,South,186,0.0,0.0,28,0.00,CLR,CLR,0.00,WeatherDisplay:10.37,2013-02-16 09:24:00,
2013-02-16 04:29:00,17.8,-9.9,29.92,SSW,199,0.0,0.0,28,0.00,CLR,CLR,0.00,WeatherDisplay:10.37,2013-02-16 09:29:00,
2013-02-16 04:34:00,17.6,-10.0,29.92,South,185,0.0,1.0,28,0.00,CLR,CLR,0.00,WeatherDisplay:10.37,2013-02-16 09:34:00,
2013-02-16 04:39:00,17.6,-10.0,29.91,SSE,153,0.0,1.0,28,0.00,CLR,CLR,0.00,WeatherDisplay:10.37,2013-02-16 09:39:00,
2013-02-16 04:44:00,17.6,-10.0,29.87,SE,138,0.0,1.0,28,0.00,CLR,CLR,0.00,WeatherDisplay:10.37,2013-02-16 09:44:00,
2013-02-16 04:49:00,17.6,-10.0,29.88,SSE,148,1.0,1.0,28,0.00,CLR,CLR,0.00,WeatherDisplay:10.37,2013-02-16 09:49:00,
2013-02-16 04:54:00,17.6,-10.0,29.89,South,184,0.0,1.0,28,0.00,CLR,CLR,0.00,WeatherDisplay:10.37,2013-02-16 09:54:00,
2013-02-16 04:59:00,17.8,-9.9,29.88,SSW,202,0.0,1.0,28,0.00,CLR,CLR,0.00,WeatherDisplay:10.37,2013-02-16 09:59:00,
2013-02-16 05:04:00,17.6,-10.0,29.88,SW,227,1.0,1.0,28,0.00,CLR,CLR,0.00,WeatherDisplay:10.37,2013-02-16 10:04:00,
2013-02-16 05:09:00,17.6,-10.0,29.93,SW,235,1.0,1.0,28,0.00,CLR,CLR,0.00,WeatherDisplay:10.37,2013-02-16 10:09:00,
2013-02-16 05:14:00,17.4,-10.2,29.93,SW,232,0.0,1.0,28,0.00,CLR,CLR,0.00,WeatherDisplay:10.37,2013-02-16 10:14:00,
2013-02-16 05:19:00,17.4,-10.2,29.92,SSW,212,0.0,1.0,28,0.00,CLR,CLR,0.00,WeatherDisplay:10.37,2013-02-16 10:19:00,
2013-02-16 05:24:00,17.4,-10.2,29.92,SSW,202,0.0,1.0,28,0.00,CLR,CLR,0.00,WeatherDisplay:10.37,2013-02-16 10:24:00,
2013-02-16 05:29:00,20.7,-7.4,29.92,South,191,0.0,1.0,28,0.00,CLR,CLR,0.00,WeatherDisplay:10.37,2013-02-16 10:29:00,
2013-02-16 05:34:00,20.5,-7.5,29.90,South,172,0.0,1.0,28,0.00,CLR,CLR,0.00,WeatherDisplay:10.37,2013-02-16 10:34:00,
2013-02-16 05:39:00,20.3,-7.7,29.87,SSE,160,0.0,1.0,28,0.00,CLR,CLR,0.00,WeatherDisplay:10.37,2013-02-16 10:39:00,
2013-02-16 05:44:00,20.3,-7.7,29.87,SSE,149,0.0,1.0,28,0.00,CLR,CLR,0.00,WeatherDisplay:10.37,2013-02-16 10:44:00,
2013-02-16 05:49:00,20.3,-7.7,29.88,SE,138,0.0,1.0,28,0.00,CLR,CLR,0.00,WeatherDisplay:10.37,2013-02-16 10:49:00,
2013-02-16 05:54:00,20.7,-7.4,29.88,SSE,152,0.0,1.0,28,0.00,CLR,CLR,0.00,WeatherDisplay:10.37,2013-02-16 10:54:00,
2013-02-16 05:59:00,17.2,-10.4,29.87,SSW,200,0.0,1.0,28,0.00,CLR,CLR,0.00,WeatherDisplay:10.37,2013-02-16 10:59:00,
2013-02-16 06:04:00,17.4,-10.2,29.89,WSW,245,0.0,1.0,28,0.00,CLR,CLR,0.00,WeatherDisplay:10.37,2013-02-16 11:04:00,
2013-02-16 06:09:00,17.4,-10.2,29.91,WSW,237,0.0,0.0,28,0.00,CLR,CLR,0.00,WeatherDisplay:10.37,2013-02-16 11:09:00,
2013-02-16 06:14:00,17.2,-10.4,29.91,SW,225,0.0,0.0,28,0.00,CLR,CLR,0.00,WeatherDisplay:10.37,2013-02-16 11:14:00,
2013-02-16 06:19:00,17.2,-10.4,29.92,SW,225,0.0,0.0,28,0.00,CLR,CLR,0.00,WeatherDisplay:10.37,2013-02-16 11:19:00,
2013-02-16 06:24:00,17.2,-10.4,29.92,SW,225,0.0,0.0,28,0.00,CLR,CLR,0.00,WeatherDisplay:10.37,2013-02-16 11:24:00,
2013-02-16 06:29:00,17.2,-10.4,29.91,SW,225,0.0,0.0,28,0.00,CLR,CLR,0.00,WeatherDisplay:10.37,2013-02-16 11:29:00,
2013-02-16 06:34:00,17.2,-10.4,29.86,SSW,199,0.0,0.0,28,0.00,CLR,CLR,0.00,WeatherDisplay:10.37,2013-02-16 11:34:00,
2013-02-16 06:39:00,17.4,-10.2,29.87,South,180,0.0,0.0,28,0.00,CLR,CLR,0.00,WeatherDisplay:10.37,2013-02-16 11:39:00,
2013-02-16 06:44:00,17.4,-10.2,29.88,South,188,0.0,0.0,28,0.00,CLR,CLR,0.00,WeatherDisplay:10.37,2013-02-16 11:44:00,
2013-02-16 06:49:00,17.8,-9.9,29.87,SSW,208,0.0,0.0,28,0.00,CLR,CLR,0.00,WeatherDisplay:10.37,2013-02-16 11:49:00,
2013-02-16 06:54:00,17.6,-10.0,29.87,SW,222,0.0,0.0,28,0.00,CLR,CLR,0.00,WeatherDisplay:10.37,2013-02-16 11:54:00,
2013-02-16 06:59:00,17.6,-10.0,29.92,SW,225,0.0,0.0,28,0.00,CLR,CLR,0.00,WeatherDisplay:10.37,2013-02-16 11:59:00,
2013-02-16 07:04:00,17.2,-10.4,29.91,SSW,212,0.0,0.0,28,0.00,CLR,CLR,0.00,WeatherDisplay:10.37,2013-02-16 12:04:00,
2013-02-16 07:09:00,20.5,-7.5,29.91,South,176,0.0,0.0,28,0.00,CLR,CLR,0.00,WeatherDisplay:10.37,2013-02-16 12:09:00,
2013-02-16 07:14:00,20.7,-7.4,29.91,SSE,166,0.0,0.0,28,0.00,CLR,CLR,0.00,WeatherDisplay:10.37,2013-02-16 12:14:00,
2013-02-16 07:19:00,20.7,-7.4,29.90,SSE,164,0.0,0.0,28,0.00,CLR,CLR,0.00,WeatherDisplay:10.37,2013-02-16 12:19:00,
2013-02-16 07:24:00,20.3,-7.7,29.86,SSE,157,0.0,0.0,28,0.00,CLR,CLR,0.00,WeatherDisplay:10.37,2013-02-16 12:24:00,
2013-02-16 07:29:00,20.1,-7.8,29.87,SSE,157,0.0,0.0,28,0.00,CLR,CLR,0.00,WeatherDisplay:10.37,2013-02-16 12:29:00,
2013-02-16 07:34:00,20.1,-7.8,29.87,SE,144,0.0,0.0,28,0.00,CLR,CLR,0.00,WeatherDisplay:10.37,2013-02-16 12:34:00,
2013-02-16 07:39:00,19.9,-8.0,29.87,SE,143,0.0,0.0,28,0.00,CLR,CLR,0.00,WeatherDisplay:10.37,2013-02-16 12:39:00,
2013-02-16 07:44:00,19.9,-8.0,29.86,SSE,154,0.0,0.0,28,0.00,CLR,CLR,0.00,WeatherDisplay:10.37,2013-02-16 12:44:00,
2013-02-16 07:49:00,19.9,-8.0,29.91,SSE,157,0.0,0.0,28,0.00,CLR,CLR,0.00,WeatherDisplay:10.37,2013-02-16 12:49:00,
2013-02-16 07:54:00,20.1,-7.8,29.91,SSE,157,0.0,0.0,28,0.00,CLR,CLR,0.00,WeatherDisplay:10.37,2013-02-16 12:54:00,
2013-02-16 07:59:00,20.1,-7.8,29.91,SE,126,0.0,0.0,28,0.00,CLR,CLR,0.00,WeatherDisplay:10.37,2013-02-16 12:59:00,
2013-02-16 08:04:00,20.5,-7.5,29.91,NE,39,1.0,1.0,28,0.00,CLR,CLR,0.00,WeatherDisplay:10.37,2013-02-16 13:04:00,
2013-02-16 08:09:00,17.4,-10.2,29.92,NE,37,1.0,2.0,28,0.00,CLR,CLR,0.00,WeatherDisplay:10.37,2013-02-16 13:09:00,
2013-02-16 08:14:00,17.6,-10.0,29.86,NNE,30,0.0,2.0,28,0.00,CLR,CLR,0.00,WeatherDisplay:10.37,2013-02-16 13:14:00,
2013-02-16 08:19:00,17.6,-10.0,29.87,NNE,32,2.0,2.0,28,0.00,CLR,CLR,0.00,WeatherDisplay:10.37,2013-02-16 13:19:00,
2013-02-16 08:24:00,17.6,-10.0,29.87,NNE,32,2.0,2.0,28,0.00,CLR,CLR,0.00,WeatherDisplay:10.37,2013-02-16 13:24:00,
2013-02-16 08:29:00,17.2,-10.4,29.87,NE,36,1.0,2.0,28,0.00,CLR,CLR,0.00,WeatherDisplay:10.37,2013-02-16 13:29:00,
2013-02-16 08:34:00,17.2,-10.4,29.86,NE,52,1.0,2.0,28,0.00,CLR,CLR,0.00,WeatherDisplay:10.37,2013-02-16 13:34:00,
2013-02-16 08:39:00,20.1,-7.8,29.87,ENE,74,2.0,2.0,28,0.00,CLR,CLR,0.00,WeatherDisplay:10.37,2013-02-16 13:39:00,
2013-02-16 08:44:00,19.2,-8.6,29.92,East,85,1.0,2.0,28,0.00,CLR,CLR,0.00,WeatherDisplay:10.37,2013-02-16 13:44:00,
2013-02-16 08:49:00,22.5,-5.8,29.90,ESE,106,1.0,2.0,28,0.00,CLR,CLR,0.00,WeatherDisplay:10.37,2013-02-16 13:49:00,
2013-02-16 08:54:00,21.9,-6.3,29.90,ESE,114,1.0,2.0,28,0.00,CLR,CLR,0.00,WeatherDisplay:10.37,2013-02-16 13:54:00,
2013-02-16 08:59:00,21.9,-6.3,29.91,SE,125,1.0,2.0,28,0.00,CLR,CLR,0.00,WeatherDisplay:10.37,2013-02-16 13:59:00,
2013-02-16 09:04:00,24.3,-4.2,29.90,SE,135,1.0,2.0,28,0.00,CLR,CLR,0.00,WeatherDisplay:10.37,2013-02-16 14:04:00,
2013-02-16 09:09:00,23.9,-4.5,29.86,SE,126,1.0,1.0,28,0.00,CLR,CLR,0.00,WeatherDisplay:10.37,2013-02-16 14:09:00,
2013-02-16 09:14:00,23.5,-4.9,29.86,ESE,123,1.0,2.0,28,0.00,CLR,CLR,0.00,WeatherDisplay:10.37,2013-02-16 14:14:00,
2013-02-16 09:19:00,23.5,-4.9,29.87,SE,128,1.0,2.0,28,0.00,CLR,CLR,0.00,WeatherDisplay:10.37,2013-02-16 14:19:00,
2013-02-16 09:24:00,23.2,-5.2,29.86,SE,125,1.0,2.0,28,0.00,CLR,CLR,0.00,WeatherDisplay:10.37,2013-02-16 14:24:00,
2013-02-16 09:29:00,23.1,-5.2,29.86,ESE,107,0.0,2.0,28,0.00,CLR,CLR,0.00,WeatherDisplay:10.37,2013-02-16 14:29:00,
2013-02-16 09:34:00,23.0,-5.4,29.92,ENE,78,0.0,2.0,28,0.00,CLR,CLR,0.00,WeatherDisplay:10.37,2013-02-16 14:34:00,
2013-02-16 09:39:00,24.5,-4.0,29.90,SSE,163,1.0,2.0,28,0.00,CLR,CLR,0.00,WeatherDisplay:10.37,2013-02-16 14:39:00,
2013-02-16 09:44:00,25.7,-3.0,29.89,SSW,201,1.0,3.0,28,0.00,CLR,CLR,0.00,WeatherDisplay:10.37,2013-02-16 14:44:00,
2013-02-16 09:49:00,26.1,-2.7,29.90,SW,224,1.0,3.0,28,0.00,CLR,CLR,0.00,WeatherDisplay:10.37,2013-02-16 14:49:00,
2013-02-16 09:54:00,26.1,-2.7,29.91,WSW,243,0.0,3.0,28,0.00,CLR,CLR,0.00,WeatherDisplay:10.37,2013-02-16 14:54:00,
2013-02-16 09:59:00,26.1,-2.7,29.85,WSW,241,0.0,3.0,28,0.00,CLR,CLR,0.00,WeatherDisplay:10.37,2013-02-16 14:59:00,
2013-02-16 10:04:00,25.5,-3.1,29.86,West,262,0.0,3.0,28,0.00,CLR,CLR,0.00,WeatherDisplay:10.37,2013-02-16 15:04:00,
2013-02-16 10:09:00,25.3,-3.3,29.86,WSW,249,3.0,3.0,28,0.00,CLR,CLR,0.00,WeatherDisplay:10.37,2013-02-16 15:09:00,
2013-02-16 10:14:00,24.8,-3.8,29.86,WSW,238,1.0,3.0,28,0.00,CLR,CLR,0.00,WeatherDisplay:10.37,2013-02-16 15:14:00,
2013-02-16 10:19:00,26.2,-2.5,29.86,SW,216,1.0,3.0,28,0.00,CLR,CLR,0.00,WeatherDisplay:10.37,2013-02-16 15:19:00,
2013-02-16 10:24:00,24.6,-3.9,29.85,WSW,239,1.0,3.0,28,0.00,CLR,CLR,0.00,WeatherDisplay:10.37,2013-02-16 15:24:00,
2013-02-16 10:29:00,26.4,-2.3,29.90,SSW,200,1.0,3.0,28,0.00,CLR,CLR,0.00,WeatherDisplay:10.37,2013-02-16 15:29:00,
2013-02-16 10:34:00,26.4,-2.3,29.89,South,184,1.0,3.0,28,0.00,CLR,CLR,0.00,WeatherDisplay:10.37,2013-02-16 15:34:00,
2013-02-16 10:39:00,26.8,-2.0,29.90,SSW,201,3.0,3.0,28,0.00,CLR,CLR,0.00,WeatherDisplay:10.37,2013-02-16 15:39:00,
2013-02-16 10:44:00,27.0,-1.9,29.90,SW,216,0.0,3.0,28,0.00,CLR,CLR,0.00,WeatherDisplay:10.37,2013-02-16 15:44:00,
2013-02-16 10:49:00,27.0,-1.9,29.89,NNW,339,0.0,3.0,28,0.00,CLR,CLR,0.00,WeatherDisplay:10.37,2013-02-16 15:49:00,
2013-02-16 10:54:00,26.6,-2.2,29.84,WSW,248,2.0,3.0,28,0.00,CLR,CLR,0.00,WeatherDisplay:10.37,2013-02-16 15:54:00,
2013-02-16 10:59:00,26.4,-2.3,29.84,WSW,256,2.0,3.0,28,0.00,CLR,CLR,0.00,WeatherDisplay:10.37,2013-02-16 15:59:00,
2013-02-16 11:04:00,26.4,-2.3,29.85,WSW,238,2.0,3.0,28,0.00,CLR,CLR,0.00,WeatherDisplay:10.37,2013-02-16 16:04:00,
2013-02-16 11:09:00,27.0,-1.9,29.86,SW,222,1.0,3.0,28,0.00,CLR,CLR,0.00,WeatherDisplay:10.37,2013-02-16 16:09:00,
2013-02-16 11:14:00,28.9,-0.1,29.85,WSW,240,3.0,4.0,28,0.00,CLR,CLR,0.00,WeatherDisplay:10.37,2013-02-16 16:14:00,
2013-02-16 11:19:00,30.3,1.1,29.84,SSW,192,2.0,4.0,28,0.00,CLR,CLR,0.00,WeatherDisplay:10.37,2013-02-16 16:19:00,
2013-02-16 11:24:00,30.9,1.6,29.89,SW,226,2.0,4.0,28,0.00,CLR,CLR,0.00,WeatherDisplay:10.37,2013-02-16 16:24:00,
2013-02-16 11:29:00,29.3,0.2,29.88,West,260,2.0,4.0,28,0.00,CLR,CLR,0.00,WeatherDisplay:10.37,2013-02-16 16:29:00,
2013-02-16 11:34:00,28.8,-0.3,29.88,WSW,237,2.0,4.0,28,0.00,CLR,CLR,0.00,WeatherDisplay:10.37,2013-02-16 16:34:00,
2013-02-16 11:39:00,28.6,-0.5,29.89,WSW,244,3.0,4.0,28,0.00,CLR,CLR,0.00,WeatherDisplay:10.37,2013-02-16 16:39:00,
2013-02-16 11:44:00,29.5,0.3,29.90,NW,306,1.0,4.0,28,0.00,CLR,CLR,0.00,WeatherDisplay:10.37,2013-02-16 16:44:00,
2013-02-16 11:49:00,29.3,0.2,29.90,NNW,327,1.0,4.0,28,0.00,CLR,CLR,0.00,WeatherDisplay:10.37,2013-02-16 16:49:00,
2013-02-16 11:54:00,30.0,0.8,29.84,NW,323,0.0,4.0,28,0.00,CLR,CLR,0.00,WeatherDisplay:10.37,2013-02-16 16:54:00,
2013-02-16 11:59:00,33.3,3.6,29.83,NNW,335,5.0,5.0,28,0.00,CLR,CLR,0.00,WeatherDisplay:10.37,2013-02-16 16:59:00,
2013-02-16 12:04:00,34.1,4.3,29.83,NW,315,2.0,5.0,28,0.00,CLR,CLR,0.00,WeatherDisplay:10.37,2013-02-16 17:04:00,
2013-02-16 12:09:00,32.9,3.3,29.84,WNW,295,2.0,4.0,28,0.00,CLR,CLR,0.00,WeatherDisplay:10.37,2013-02-16 17:09:00,
2013-02-16 12:14:00,28.6,-0.5,29.84,NNW,327,3.0,5.0,28,0.00,CLR,CLR,0.00,WeatherDisplay:10.37,2013-02-16 17:14:00,
2013-02-16 12:19:00,27.5,-1.4,29.84,NNW,338,2.0,5.0,28,0.00,CLR,CLR,0.00,WeatherDisplay:10.37,2013-02-16 17:19:00,
2013-02-16 12:24:00,25.7,-3.0,29.84,NNW,333,3.0,5.0,28,0.00,CLR,CLR,0.00,WeatherDisplay:10.37,2013-02-16 17:24:00,
2013-02-16 12:29:00,25.7,-3.0,29.85,NW,326,0.0,5.0,28,0.00,CLR,CLR,0.00,WeatherDisplay:10.37,2013-02-16 17:29:00,
2013-02-16 12:34:00,25.7,-3.0,29.84,NW,318,0.0,5.0,28,0.00,CLR,CLR,0.00,WeatherDisplay:10.37,2013-02-16 17:34:00,
2013-02-16 12:39:00,24.6,-3.9,29.83,WNW,287,2.0,5.0,28,0.00,CLR,CLR,0.00,WeatherDisplay:10.37,2013-02-16 17:39:00,
2013-02-16 12:44:00,25.0,-3.6,29.89,NW,320,3.0,5.0,28,0.00,CLR,CLR,0.00,WeatherDisplay:10.37,2013-02-16 17:44:00,
2013-02-16 12:49:00,24.8,-3.8,29.87,NW,308,3.0,5.0,28,0.00,CLR,CLR,0.00,WeatherDisplay:10.37,2013-02-16 17:49:00,
2013-02-16 12:54:00,24.8,-3.8,29.87,WNW,300,3.0,5.0,28,0.00,CLR,CLR,0.00,WeatherDisplay:10.37,2013-02-16 17:54:00,
2013-02-16 12:59:00,27.7,-1.2,29.87,WNW,300,3.0,5.0,28,0.00,CLR,CLR,0.00,WeatherDisplay:10.37,2013-02-16 17:59:00,
2013-02-16 13:04:00,26.8,-2.0,29.88,NW,308,2.0,5.0,28,0.00,CLR,CLR,0.00,WeatherDisplay:10.37,2013-02-16 18:04:00,
2013-02-16 13:09:00,27.3,-1.6,29.87,NW,319,1.0,4.0,28,0.00,CLR,CLR,0.00,WeatherDisplay:10.37,2013-02-16 18:09:00,
2013-02-16 13:14:00,27.7,-1.2,29.87,NW,308,2.0,4.0,28,0.00,CLR,CLR,0.00,WeatherDisplay:10.37,2013-02-16 18:14:00,
2013-02-16 13:19:00,27.7,-1.2,29.81,WSW,243,2.0,4.0,28,0.00,CLR,CLR,0.00,WeatherDisplay:10.37,2013-02-16 18:19:00,
2013-02-16 13:24:00,28.6,-0.5,29.81,NW,325,3.0,4.0,28,0.00,CLR,CLR,0.00,WeatherDisplay:10.37,2013-02-16 18:24:00,
2013-02-16 13:29:00,29.1,0.0,29.81,WNW,296,5.0,5.0,28,0.00,CLR,CLR,0.00,WeatherDisplay:10.37,2013-02-16 18:29:00,
2013-02-16 13:34:00,28.6,-0.5,29.82,WNW,294,2.0,5.0,28,0.00,CLR,CLR,0.00,WeatherDisplay:10.37,2013-02-16 18:34:00,
2013-02-16 13:39:00,26.8,-2.0,29.83,WNW,300,2.0,5.0,28,0.00,CLR,CLR,0.00,WeatherDisplay:10.37,2013-02-16 18:39:00,
2013-02-16 13:44:00,26.2,-2.5,29.82,WNW,302,2.0,5.0,28,0.00,CLR,CLR,0.00,WeatherDisplay:10.37,2013-02-16 18:44:00,
2013-02-16 13:49:00,25.3,-3.3,29.83,NW,325,2.0,5.0,28,0.00,CLR,CLR,0.00,WeatherDisplay:10.37,2013-02-16 18:49:00,
2013-02-16 13:54:00,24.8,-3.8,29.83,West,267,3.0,5.0,28,0.00,CLR,CLR,0.00,WeatherDisplay:10.37,2013-02-16 18:54:00,
2013-02-16 13:59:00,25.0,-3.6,29.83,West,265,2.0,5.0,28,0.00,CLR,CLR,0.00,WeatherDisplay:10.37,2013-02-16 18:59:00,
2013-02-16 14:04:00,24.6,-3.9,29.82,WNW,300,2.0,5.0,28,0.00,CLR,CLR,0.00,WeatherDisplay:10.37,2013-02-16 19:04:00,
2013-02-16 14:09:00,26.2,-2.5,29.81,WNW,292,2.0,3.0,28,0.00,CLR,CLR,0.00,WeatherDisplay:10.37,2013-02-16 19:09:00,
2013-02-16 14:14:00,24.6,-3.9,29.86,NW,305,2.0,5.0,28,0.00,CLR,CLR,0.00,WeatherDisplay:10.37,2013-02-16 19:14:00,
2013-02-16 14:19:00,25.2,-3.4,29.86,NW,305,3.0,5.0,28,0.00,CLR,CLR,0.00,WeatherDisplay:10.37,2013-02-16 19:19:00,
2013-02-16 14:24:00,25.3,-3.3,29.85,NW,315,5.0,5.0,28,0.00,CLR,CLR,0.00,WeatherDisplay:10.37,2013-02-16 19:24:00,
2013-02-16 14:29:00,24.6,-3.9,29.85,WNW,299,3.0,5.0,28,0.00,CLR,CLR,0.00,WeatherDisplay:10.37,2013-02-16 19:29:00,
2013-02-16 14:34:00,26.2,-2.5,29.86,West,276,1.0,5.0,28,0.00,CLR,CLR,0.00,WeatherDisplay:10.37,2013-02-16 19:34:00,
2013-02-16 14:39:00,26.8,-2.0,29.86,West,277,5.0,5.0,28,0.00,CLR,CLR,0.00,WeatherDisplay:10.37,2013-02-16 19:39:00,
2013-02-16 14:44:00,27.9,-1.1,29.86,WNW,303,5.0,5.0,28,0.00,CLR,CLR,0.00,WeatherDisplay:10.37,2013-02-16 19:44:00,
2013-02-16 14:49:00,27.7,-1.2,29.86,NW,315,5.0,5.0,28,0.00,CLR,CLR,0.00,WeatherDisplay:10.37,2013-02-16 19:49:00,
2013-02-16 14:54:00,26.6,-2.2,29.85,NNW,332,5.0,5.0,28,0.00,CLR,CLR,0.00,WeatherDisplay:10.37,2013-02-16 19:54:00,
2013-02-16 14:59:00,26.6,-2.2,29.81,NNW,337,5.0,5.0,28,0.00,CLR,CLR,0.00,WeatherDisplay:10.37,2013-02-16 19:59:00,
2013-02-16 15:04:00,24.6,-3.9,29.81,NW,321,2.0,6.0,28,0.00,CLR,CLR,0.00,WeatherDisplay:10.37,2013-02-16 20:04:00,
2013-02-16 15:09:00,26.2,-2.5,29.81,WNW,299,3.0,3.0,28,0.00,CLR,CLR,0.00,WeatherDisplay:10.37,2013-02-16 20:09:00,
2013-02-16 15:14:00,26.6,-2.2,29.81,NW,306,3.0,3.0,28,0.00,CLR,CLR,0.00,WeatherDisplay:10.37,2013-02-16 20:14:00,
2013-02-16 15:19:00,26.6,-2.2,29.83,NW,306,3.0,3.0,28,0.00,CLR,CLR,0.00,WeatherDisplay:10.37,2013-02-16 20:19:00,
2013-02-16 15:24:00,25.0,-3.6,29.83,WNW,298,2.0,4.0,28,0.00,CLR,CLR,0.00,WeatherDisplay:10.37,2013-02-16 20:24:00,
2013-02-16 15:29:00,25.7,-3.0,29.83,WNW,299,3.0,4.0,28,0.00,CLR,CLR,0.00,WeatherDisplay:10.37,2013-02-16 20:29:00,
2013-02-16 15:34:00,25.9,-2.8,29.82,WNW,295,3.0,4.0,28,0.00,CLR,CLR,0.00,WeatherDisplay:10.37,2013-02-16 20:34:00,
2013-02-16 15:39:00,23.0,-5.3,29.87,NW,320,5.0,5.0,28,0.00,CLR,CLR,0.00,WeatherDisplay:10.37,2013-02-16 20:39:00,
2013-02-16 15:44:00,23.0,-5.3,29.87,NNW,337,5.0,5.0,28,0.00,CLR,CLR,0.00,WeatherDisplay:10.37,2013-02-16 20:44:00,
2013-02-16 15:49:00,23.4,-5.0,29.86,NW,322,6.0,6.0,28,0.00,CLR,CLR,0.00,WeatherDisplay:10.37,2013-02-16 20:49:00,
2013-02-16 15:54:00,23.5,-4.9,29.86,NW,315,6.0,6.0,28,0.00,CLR,CLR,0.00,WeatherDisplay:10.37,2013-02-16 20:54:00,
2013-02-16 15:59:00,23.4,-5.0,29.87,NW,315,2.0,6.0,28,0.00,CLR,CLR,0.00,WeatherDisplay:10.37,2013-02-16 20:59:00,
2013-02-16 16:04:00,22.8,-5.5,29.87,NW,312,6.0,6.0,28,0.00,CLR,CLR,0.00,WeatherDisplay:10.37,2013-02-16 21:04:00,
2013-02-16 16:09:00,23.0,-5.3,29.87,NNW,329,5.0,6.0,28,0.00,CLR,CLR,0.00,WeatherDisplay:10.37,2013-02-16 21:09:00,
2013-02-16 16:14:00,23.5,-4.9,29.83,NNW,337,3.0,6.0,28,0.00,CLR,CLR,0.00,WeatherDisplay:10.37,2013-02-16 21:14:00,
2013-02-16 16:19:00,20.8,-7.2,29.83,NW,322,3.0,6.0,28,0.00,CLR,CLR,0.00,WeatherDisplay:10.37,2013-02-16 21:19:00,
2013-02-16 16:24:00,21.0,-7.1,29.83,NW,325,3.0,7.0,28,0.00,CLR,CLR,0.00,WeatherDisplay:10.37,2013-02-16 21:24:00,
2013-02-16 16:29:00,20.8,-7.2,29.84,NW,320,5.0,7.0,28,0.00,CLR,CLR,0.00,WeatherDisplay:10.37,2013-02-16 21:29:00,
2013-02-16 16:34:00,20.8,-7.2,29.85,NW,313,3.0,7.0,28,0.00,CLR,CLR,0.00,WeatherDisplay:10.37,2013-02-16 21:34:00,
2013-02-16 16:39:00,23.9,-4.5,29.84,WNW,303,3.0,7.0,28,0.00,CLR,CLR,0.00,WeatherDisplay:10.37,2013-02-16 21:39:00,
2013-02-16 16:44:00,23.9,-4.5,29.84,WNW,301,3.0,7.0,28,0.00,CLR,CLR,0.00,WeatherDisplay:10.37,2013-02-16 21:44:00,
2013-02-16 16:49:00,23.7,-4.7,29.83,WNW,298,2.0,7.0,28,0.00,CLR,CLR,0.00,WeatherDisplay:10.37,2013-02-16 21:49:00,
2013-02-16 16:54:00,23.9,-4.5,29.88,WNW,292,2.0,7.0,28,0.00,CLR,CLR,0.00,WeatherDisplay:10.37,2013-02-16 21:54:00,
2013-02-16 16:59:00,23.9,-4.5,29.88,NW,314,3.0,7.0,28,0.00,CLR,CLR,0.00,WeatherDisplay:10.37,2013-02-16 21:59:00,
2013-02-16 17:04:00,23.9,-4.5,29.88,NNW,346,3.0,7.0,28,0.00,CLR,CLR,0.00,WeatherDisplay:10.37,2013-02-16 22:04:00,
2013-02-16 17:09:00,21.7,-6.4,29.88,NNE,12,6.0,7.0,28,0.00,CLR,CLR,0.00,WeatherDisplay:10.37,2013-02-16 22:09:00,
2013-02-16 17:14:00,21.7,-6.4,29.88,NW,319,6.0,6.0,28,0.00,CLR,CLR,0.00,WeatherDisplay:10.37,2013-02-16 22:14:00,
2013-02-16 17:19:00,21.4,-6.7,29.87,NW,308,3.0,6.0,28,0.00,CLR,CLR,0.00,WeatherDisplay:10.37,2013-02-16 22:19:00,
2013-02-16 17:24:00,21.6,-6.6,29.83,NW,316,2.0,6.0,28,0.00,CLR,CLR,0.00,WeatherDisplay:10.37,2013-02-16 22:24:00,
2013-02-16 17:29:00,21.7,-6.4,29.84,NW,315,1.0,6.0,28,0.00,CLR,CLR,0.00,WeatherDisplay:10.37,2013-02-16 22:29:00,
2013-02-16 17:34:00,21.9,-6.3,29.84,NW,321,3.0,6.0,28,0.00,CLR,CLR,0.00,WeatherDisplay:10.37,2013-02-16 22:34:00,
2013-02-16 17:39:00,22.1,-6.1,29.85,NW,304,3.0,6.0,28,0.00,CLR,CLR,0.00,WeatherDisplay:10.37,2013-02-16 22:39:00,
2013-02-16 17:44:00,22.3,-6.0,29.85,NW,324,2.0,6.0,28,0.00,CLR,CLR,0.00,WeatherDisplay:10.37,2013-02-16 22:44:00,
2013-02-16 17:49:00,22.3,-6.0,29.86,NNW,327,2.0,6.0,28,0.00,CLR,CLR,0.00,WeatherDisplay:10.37,2013-02-16 22:49:00,
2013-02-16 17:54:00,22.5,-5.8,29.86,NW,312,0.0,6.0,28,0.00,CLR,CLR,0.00,WeatherDisplay:10.37,2013-02-16 22:54:00,
2013-02-16 17:59:00,22.5,-5.8,29.85,NW,318,0.0,6.0,28,0.00,CLR,CLR,0.00,WeatherDisplay:10.37,2013-02-16 22:59:00,
2013-02-16 18:04:00,19.4,-8.5,29.84,NW,310,1.0,6.0,28,0.00,CLR,CLR,0.00,WeatherDisplay:10.37,2013-02-16 23:04:00,
2013-02-16 18:09:00,19.6,-8.3,29.91,NW,316,3.0,4.0,28,0.00,CLR,CLR,0.00,WeatherDisplay:10.37,2013-02-16 23:09:00,
2013-02-16 18:14:00,19.8,-8.2,29.90,NW,320,1.0,4.0,28,0.00,CLR,CLR,0.00,WeatherDisplay:10.37,2013-02-16 23:14:00,
2013-02-16 18:19:00,19.9,-8.0,29.89,NNW,328,1.0,4.0,28,0.00,CLR,CLR,0.00,WeatherDisplay:10.37,2013-02-16 23:19:00,
2013-02-16 18:24:00,20.1,-7.8,29.90,NW,323,1.0,4.0,28,0.00,CLR,CLR,0.00,WeatherDisplay:10.37,2013-02-16 23:24:00,
2013-02-16 18:29:00,20.1,-7.8,29.91,NW,323,1.0,4.0,28,0.00,CLR,CLR,0.00,WeatherDisplay:10.37,2013-02-16 23:29:00,
2013-02-16 18:34:00,20.1,-7.8,29.91,NNW,347,2.0,4.0,28,0.00,CLR,CLR,0.00,WeatherDisplay:10.37,2013-02-16 23:34:00,
2013-02-16 18:39:00,20.5,-7.5,29.90,NNE,28,2.0,7.0,28,0.00,CLR,CLR,0.00,WeatherDisplay:10.37,2013-02-16 23:39:00,
2013-02-16 18:44:00,17.2,-10.4,29.86,NNE,27,1.0,7.0,28,0.00,CLR,CLR,0.00,WeatherDisplay:10.37,2013-02-16 23:44:00,
2013-02-16 18:49:00,17.2,-10.4,29.87,NNE,23,2.0,7.0,28,0.00,CLR,CLR,0.00,WeatherDisplay:10.37,2013-02-16 23:49:00,
2013-02-16 18:54:00,17.4,-10.2,29.87,NE,42,1.0,7.0,28,0.00,CLR,CLR,0.00,WeatherDisplay:10.37,2013-02-16 23:54:00,
2013-02-16 18:59:00,17.4,-10.2,29.87,NNE,24,1.0,7.0,28,0.00,CLR,CLR,0.00,WeatherDisplay:10.37,2013-02-16 23:59:00,
2013-02-16 19:04:00,17.4,-10.2,29.88,North,356,1.0,7.0,28,0.00,CLR,CLR,0.00,WeatherDisplay:10.37,2013-02-17 00:04:00,
2013-02-16 19:09:00,17.4,-10.2,29.89,North,349,0.0,1.0,28,0.00,CLR,CLR,0.00,WeatherDisplay:10.37,2013-02-17 00:09:00,
2013-02-16 19:14:00,20.7,-7.4,29.89,NNE,25,0.0,1.0,28,0.00,CLR,CLR,0.00,WeatherDisplay:10.37,2013-02-17 00:14:00,
2013-02-16 19:19:00,20.7,-7.4,29.88,NNE,22,0.0,1.0,28,0.00,CLR,CLR,0.00,WeatherDisplay:10.37,2013-02-17 00:19:00,
2013-02-16 19:24:00,17.2,-10.4,29.88,NNW,335,0.0,1.0,28,0.00,CLR,CLR,0.00,WeatherDisplay:10.37,2013-02-17 00:24:00,
2013-02-16 19:29:00,17.2,-10.4,29.93,North,357,0.0,1.0,28,0.00,CLR,CLR,0.00,WeatherDisplay:10.37,2013-02-17 00:29:00,
2013-02-16 19:34:00,17.2,-10.4,29.92,NE,38,0.0,1.0,28,0.00,CLR,CLR,0.00,WeatherDisplay:10.37,2013-02-17 00:34:00,
2013-02-16 19:39:00,17.2,-10.4,29.92,NNE,17,0.0,1.0,28,0.00,CLR,CLR,0.00,WeatherDisplay:10.37,2013-02-17 00:39:00,
2013-02-16 19:44:00,17.4,-10.2,29.93,NNE,13,0.0,2.0,28,0.00,CLR,CLR,0.00,WeatherDisplay:10.37,2013-02-17 00:44:00,
2013-02-16 19:49:00,17.4,-10.2,29.91,North,355,0.0,2.0,28,0.00,CLR,CLR,0.00,WeatherDisplay:10.37,2013-02-17 00:49:00,
2013-02-16 19:54:00,17.4,-10.2,29.88,NNW,339,0.0,2.0,28,0.00,CLR,CLR,0.00,WeatherDisplay:10.37,2013-02-17 00:54:00,
2013-02-16 19:59:00,17.4,-10.2,29.88,North,351,1.0,2.0,28,0.00,CLR,CLR,0.00,WeatherDisplay:10.37,2013-02-17 00:59:00,
2013-02-16 20:04:00,17.4,-10.2,29.89,North,0,1.0,2.0,28,0.00,CLR,CLR,0.00,WeatherDisplay:10.37,2013-02-17 01:04:00,
2013-02-16 20:10:00,17.4,-10.2,29.88,NNW,337,1.3,1.3,28,0.00,CLR,,0.00,WeatherDisplay:10.37,2013-02-17 01:10:00,
2013-02-16 20:16:00,17.6,-10.0,29.90,NNW,337,2.4,2.4,28,0.00,CLR,,0.00,WeatherDisplay:10.37,2013-02-17 01:16:00,
2013-02-16 20:22:00,17.6,-10.0,29.89,North,0,2.4,2.4,28,0.00,CLR,,0.00,WeatherDisplay:10.37,2013-02-17 01:22:00,
2013-02-16 20:28:00,17.6,-10.0,29.89,NNW,337,3.5,3.5,28,0.00,CLR,,0.00,WeatherDisplay:10.37,2013-02-17 01:28:00,
2013-02-16 20:33:00,17.6,-10.0,29.88,North,0,3.5,3.5,28,0.00,CLR,,0.00,WeatherDisplay:10.37,2013-02-17 01:33:00,
2013-02-16 20:38:00,17.8,-9.9,29.95,NNW,337,3.5,3.5,28,0.00,CLR,,0.00,WeatherDisplay:10.37,2013-02-17 01:38:00,
2013-02-16 20:43:00,17.8,-9.9,29.93,North,0,3.5,3.5,28,0.00,CLR,,0.00,WeatherDisplay:10.37,2013-02-17 01:43:00,
2013-02-16 20:48:00,17.8,-9.9,29.93,North,0,3.5,3.5,28,0.00,CLR,,0.00,WeatherDisplay:10.37,2013-02-17 01:48:00,
2013-02-16 20:53:00,18.0,-9.7,29.93,NW,315,3.5,3.5,28,0.00,CLR,,0.00,WeatherDisplay:10.37,2013-02-17 01:53:00,
2013-02-16 20:58:00,18.0,-9.7,29.93,North,0,3.5,3.5,28,0.00,CLR,,0.00,WeatherDisplay:10.37,2013-02-17 01:58:00,
2013-02-16 21:03:00,18.0,-9.7,29.87,NNW,337,3.5,3.5,28,0.00,CLR,,0.00,WeatherDisplay:10.37,2013-02-17 02:03:00,
2013-02-16 21:08:00,18.0,-9.7,29.88,NW,315,3.5,3.5,28,0.00,CLR,,0.00,WeatherDisplay:10.37,2013-02-17 02:08:00,
2013-02-16 21:13:00,18.1,-9.6,29.89,North,0,4.3,4.3,28,0.00,CLR,,0.00,WeatherDisplay:10.37,2013-02-17 02:13:00,
2013-02-16 21:18:00,18.1,-9.6,29.89,NW,315,4.6,4.6,28,0.00,CLR,,0.00,WeatherDisplay:10.37,2013-02-17 02:18:00,
2013-02-16 21:24:00,18.3,-9.4,29.89,NNW,337,4.6,4.6,28,0.00,CLR,,0.00,WeatherDisplay:10.37,2013-02-17 02:24:00,
2013-02-16 21:29:00,18.3,-9.4,29.90,North,0,4.6,4.6,28,0.00,CLR,,0.00,WeatherDisplay:10.37,2013-02-17 02:29:00,
2013-02-16 21:34:00,18.5,-9.3,29.90,NNE,22,4.6,4.6,28,0.00,CLR,,0.00,WeatherDisplay:10.37,2013-02-17 02:34:00,
2013-02-16 21:39:00,18.3,-9.4,29.89,NNW,337,4.6,4.6,28,0.00,CLR,,0.00,WeatherDisplay:10.37,2013-02-17 02:39:00,
2013-02-16 21:44:00,18.3,-9.4,29.95,North,0,4.6,4.6,28,0.00,CLR,,0.00,WeatherDisplay:10.37,2013-02-17 02:44:00,
2013-02-16 21:49:00,18.3,-9.4,29.93,North,0,4.6,4.6,28,0.00,CLR,,0.00,WeatherDisplay:10.37,2013-02-17 02:49:00,
2013-02-16 21:54:00,18.3,-9.4,29.95,NNW,337,4.6,4.6,28,0.00,CLR,,0.00,WeatherDisplay:10.37,2013-02-17 02:54:00,
2013-02-16 21:59:00,18.5,-9.3,29.95,NE,45,4.6,4.6,28,0.00,CLR,,0.00,WeatherDisplay:10.37,2013-02-17 02:59:00,
2013-02-16 22:04:00,18.5,-9.3,29.94,NNE,23,3.0,5.0,28,0.00,CLR,CLR,0.00,WeatherDisplay:10.37,2013-02-17 03:04:00,
2013-02-16 22:09:00,18.5,-9.3,29.88,NNW,346,3.0,3.0,28,0.00,CLR,CLR,0.00,WeatherDisplay:10.37,2013-02-17 03:09:00,
2013-02-16 22:14:00,18.3,-9.4,29.89,North,356,3.0,3.0,28,0.00,CLR,CLR,0.00,WeatherDisplay:10.37,2013-02-17 03:14:00,
2013-02-16 22:19:00,18.3,-9.4,29.88,North,11,3.0,3.0,28,0.00,CLR,CLR,0.00,WeatherDisplay:10.37,2013-02-17 03:19:00,
2013-02-16 22:24:00,18.5,-9.3,29.89,North,360,2.0,3.0,28,0.00,CLR,CLR,0.00,WeatherDisplay:10.37,2013-02-17 03:24:00,
2013-02-16 22:29:00,18.5,-9.3,29.89,North,353,3.0,4.0,28,0.00,CLR,CLR,0.00,WeatherDisplay:10.37,2013-02-17 03:29:00,
2013-02-16 22:34:00,18.7,-9.1,29.89,North,0,3.0,4.0,28,0.00,CLR,CLR,0.00,WeatherDisplay:10.37,2013-02-17 03:34:00,
2013-02-16 22:39:00,18.7,-9.1,29.90,North,354,3.0,4.0,28,0.00,CLR,CLR,0.00,WeatherDisplay:10.37,2013-02-17 03:39:00,
2013-02-16 22:44:00,18.7,-9.1,29.90,NNW,348,2.0,4.0,28,0.00,CLR,CLR,0.00,WeatherDisplay:10.37,2013-02-17 03:44:00,
2013-02-16 22:49:00,18.9,-8.9,29.89,NNW,345,1.0,4.0,28,0.00,CLR,CLR,0.00,WeatherDisplay:10.37,2013-02-17 03:49:00,
2013-02-16 22:54:00,18.9,-8.9,29.90,NNW,340,3.0,4.0,28,0.00,CLR,CLR,0.00,WeatherDisplay:10.37,2013-02-17 03:54:00,
2013-02-16 22:59:00,18.9,-8.9,29.94,North,355,3.0,4.0,28,0.00,CLR,CLR,0.00,WeatherDisplay:10.37,2013-02-17 03:59:00,
2013-02-16 23:04:00,15.4,-11.9,29.93,NNW,346,5.0,5.0,28,0.00,CLR,CLR,0.00,WeatherDisplay:10.37,2013-02-17 04:04:00,
2013-02-16 23:09:00,15.4,-11.9,29.93,NNW,342,3.0,5.0,28,0.00,CLR,CLR,0.00,WeatherDisplay:10.37,2013-02-17 04:09:00,
2013-02-16 23:14:00,15.4,-11.9,29.94,NNW,340,3.0,5.0,28,0.00,CLR,CLR,0.00,WeatherDisplay:10.37,2013-02-17 04:14:00,
2013-02-16 23:19:00,15.8,-11.6,29.94,NNW,337,5.0,5.0,28,0.00,CLR,CLR,0.00,WeatherDisplay:10.37,2013-02-17 04:19:00,
2013-02-16 23:24:00,16.0,-11.5,29.88,North,352,3.0,5.0,28,0.00,CLR,CLR,0.00,WeatherDisplay:10.37,2013-02-17 04:24:00,
2013-02-16 23:29:00,16.0,-11.5,29.89,North,0,2.0,5.0,28,0.00,CLR,CLR,0.00,WeatherDisplay:10.37,2013-02-17 04:29:00,
2013-02-16 23:34:00,16.3,-11.1,29.90,NNW,346,6.0,6.0,28,0.00,CLR,CLR,0.00,WeatherDisplay:10.37,2013-02-17 04:34:00,
2013-02-16 23:39:00,16.7,-10.8,29.91,North,350,6.0,6.0,28,0.00,CLR,CLR,0.00,WeatherDisplay:10.37,2013-02-17 04:39:00,
2013-02-16 23:44:00,16.9,-10.7,29.90,North,11,2.0,6.0,28,0.00,CLR,CLR,0.00,WeatherDisplay:10.37,2013-02-17 04:44:00,
2013-02-16 23:49:00,16.9,-10.7,29.90,North,6,5.0,6.0,28,0.00,CLR,CLR,0.00,WeatherDisplay:10.37,2013-02-17 04:49:00,
2013-02-16 23:54:00,13.6,-13.5,29.95,NNW,341,3.0,6.0,28,0.00,CLR,CLR,0.00,WeatherDisplay:10.37,2013-02-17 04:54:00,
2013-02-16 23:59:00,13.8,-13.3,29.95,NNW,333,2.0,6.0,28,0.00,CLR,CLR,0.00,WeatherDisplay:10.37,2013-02-17 04:59:00,